Regional Weather Roundup
Issued by NWS

Home | Current Version | Previous Version | Text Only | Print | Product List | Glossary On
Versions: 1 2 3 4 5 6 7 8 9 10 11 12 13 14 15 16 17 18 19 20 21 22 23 24 25 26 27 28 29 30 31 32 33 34 35 36 37 38 39 40 41 42 43 44 45 46 47 48 49 50
000
ASUS44 KMEG 220410
RWRTN
TENNESSEE HOURLY STATE WEATHER ROUNDUP
NATIONAL WEATHER SERVICE MEMPHIS TN
1000 PM CST SUN JAN 21 2018

TNZ002-004-019-021-049-052-054-088>092-220500-
WEST TENNESSEE

CITY           SKY/WX    TMP DP  RH WIND       PRES   REMARKS
MEMPHIS INTL   CLOUDY    63  50  62 S13       29.92F
NWS MEMPHIS      N/A     63 N/A N/A MISG        N/A
JACKSON        FAIR      62  46  55 S7        29.95F
DYERSBURG      FAIR      61  49  64 SE12      29.91F
SOMERVILLE     CLOUDY    63  48  59 S5        29.93S
COVINGTON      MOCLDY    61  50  67 S12G17    29.91F
UNION CITY     CLOUDY    61  48  63 S15G22    29.91F
BOLIVAR        MOCLDY    61  46  59 SE13      29.95F
PARIS          PTCLDY    59  46  63 S12       29.95S
HUNTINGDON     PTCLDY    61  46  59 S10G16    29.95F
LEXINGTON      CLEAR     63  45  51 SE10G22   29.97F
SELMER         CLEAR     61  45  55 S13G18    29.97F
SAVANNAH       PTCLDY    63  45  51 S12       29.99F
$$

TNZ008-025-027-028-033-062-065-066-220500-
NORTH MIDDLE TENNESSEE

CITY           SKY/WX    TMP DP  RH WIND       PRES   REMARKS
NASHVILLE      FAIR      61  43  51 S17       30.04F
PORTLAND       CLOUDY    59  45  58 S15G21    30.02F
CLARKSVILLE    FAIR      59  42  53 S10       29.99S
SMYRNA         FAIR      58  44  60 S10       30.05F
COOKEVILLE     CLOUDY    57  43  58 S5        30.07F
GALLATIN       CLOUDY    59  45  58 S5        30.07S
CROSSVILLE     MOCLDY    56  41  57 S6        30.13F
$$

TNZ061-075-076-078-094-096-097-220500-
SOUTH MIDDLE TENNESSEE

CITY           SKY/WX    TMP DP  RH WIND       PRES   REMARKS
FAYETTEVILLE   CLEAR     59  43  55 S9        30.07F
TULLAHOMA      PTCLDY    55  43  62 SE5       30.08S
WINCHESTER     MOCLDY    57  43  58 VRB3      30.09S
MCMINNVILLE    CLEAR     59  43  55 S3        30.08S
COLUMBIA       CLEAR     59  43  55 S9        30.02S
SHELBYVILLE    CLEAR     59  43  55 SE9       30.06F
$$

TNZ017-018-042-046-047-220500-
NORTHEAST TENNESSEE

CITY           SKY/WX    TMP DP  RH WIND       PRES   REMARKS
TRI CITIES     FAIR      37  37 100 CALM      30.18S
ELIZABETHTON   FAIR      41  39  93 NE3       30.19S
$$

TNZ012-013-036-069-073-074-220500-
CENTRAL EAST TENNESSEE

CITY           SKY/WX    TMP DP  RH WIND       PRES   REMARKS
KNOXVILLE      FAIR      44  40  85 E5        30.15S
OAK RIDGE      CLOUDY    45  41  86 CALM      30.16S
DOWNTOWN KNOXV MOCLDY    39  37  93 CALM      30.17S
GATLINBURG     CLEAR     37  37 100 CALM      30.16S
MORRISTOWN     CLOUDY    46  41  81 CALM      30.16S
JACKSBORO      CLOUDY    46  41  81 CALM      30.18S
$$

TNZ083-085-099-220500-
SOUTHEAST TENNESSEE

CITY           SKY/WX    TMP DP  RH WIND       PRES   REMARKS
CHATTANOOGA    FAIR      46  39  76 CALM      30.13F
DAYTON         CLEAR     39  39 100 CALM      30.13F
$$

SKY/WX REPORTED AS FAIR MEANS FEW OR NO CLOUDS BELOW
12 THOUSAND FEET.




USA.gov is the U.S. government's official web portal to all federal, state and local government web resources and services.